Regional Weather Roundup
Issued by NWS State College, PA

Home | Current Version | Previous Version | Text Only | Print | Product List | Glossary On
Versions: 1 2 3 4 5 6 7 8 9 10 11 12 13 14 15 16 17 18 19 20 21 22 23 24 25 26 27 28 29 30 31 32 33 34 35 36 37 38 39 40 41 42 43 44 45 46 47 48 49 50
000
ASUS41 KCTP 280303
RWRCTP

REGIONAL WEATHER ROUNDUP
NATIONAL WEATHER SERVICE STATE COLLEGE PA
1000 PM EST SAT DEC 27 2014

Note: "fair" indicates few or no clouds below 12,000 feet with no
significant weather and/or obstructions to visibility.

* = STATION THAT DOES NOT REPORT PRECIPITATION /E.G. RAIN...SNOW...ETC/
    THUNDER OR FOG.

PAZ002>004-007>009-013>016-020>023-029>032-280400-
WESTERN PENNSYLVANIA

CITY           SKY/WX    TMP DP  RH WIND       PRES   REMARKS
ERIE           LGT RAIN  50  40  68 S15G24    29.94F
MEADVILLE      CLOUDY    47  39  74 SW10G17   29.97F
FRANKLIN*      CLOUDY    50  34  53 SW12G21   30.01F
NEW CASTLE       N/A     52  35  52 SW9G16    30.02S
BEAVER COUNTY  NOT AVBL
BUTLER*        CLOUDY    52  28  40 SW8G16    30.03F
PITTSBURGH INT LGT RAIN  53  30  41 SW5       30.01F
PITTSBURGH     CLOUDY    53  20  27 S8        30.02F
INDIANA*       CLOUDY    52  28  40 SW8       30.06F
LATROBE        CLOUDY    50  28  43 SW6       30.05F
WASHINGTON CO* NOT AVBL
$$

PAZ004>006-010>012-017>019-024>028-033>037-041-042-045-046-049>053-280400-
CENTRAL PENNSYLVANIA

CITY           SKY/WX    TMP DP  RH WIND       PRES   REMARKS
BRADFORD       CLOUDY    49  30  48 SW13      29.97F
DUBOIS         CLOUDY    46  35  65 SW13G22   29.99F
CLEARFIELD     CLOUDY    46  37  71 CALM      30.03F
JOHNSTOWN      CLOUDY    52  19  27 SW12      30.03F
ALTOONA        CLOUDY    47  32  56 CALM      30.05F
STATE COLLEGE  CLOUDY    49  32  52 S3        30.05S
WILLIAMSPORT   CLOUDY    43  35  73 CALM      30.05F
SELINSGROVE    CLOUDY    47  33  58 SW5       30.07F
FT INDIANTOWN  MOCLDY    38  34  85 N2        30.11F
CAPITAL CITY   CLOUDY    42  34  73 CALM      30.10F
HARRISBURG     CLOUDY    44  32  62 E3        30.09F
YORK           MOCLDY    39  32  76 CALM      30.09F
$$

PAZ038>040-043-044-047-048-054-055-060>062-067>071-280400-
EASTERN PENNSYLVANIA

CITY           SKY/WX    TMP DP  RH WIND       PRES   REMARKS
SCRANTON       MOCLDY    49  32  52 SW8       30.06F
MOUNT POCONO   PTCLDY    45  30  55 SW10      30.06F
ALLENTOWN      CLEAR     37  31  78 CALM      30.10F
QUAKERTOWN*    CLEAR     39  32  75 CALM      30.12F
READING        PTCLDY    45  32  60 S5        30.10F
LANCASTER      MOCLDY    42  31  64 E3        30.10F
COATESVILLE    PTCLDY    45  34  65 CALM      30.12F
POTTSTOWN      PTCLDY    42  30  62 CALM      30.12F
BLUE BELL      CLEAR     41  32  70 CALM      30.12F
DOYLESTOWN     CLEAR     42  31  64 S5        30.12S
WILLOW GROVE   NOT AVBL
NORTH PHILA    PTCLDY    43  31  62 CALM      30.15F
PHILADELPHIA   MOCLDY    42  34  73 SW3       30.15F
$$


USA.gov is the U.S. government's official web portal to all federal, state and local government web resources and services.